"read_dt","SO2 (ppb)","flags","PMT voltage (V)","lamp voltage (V)","lamp intensity (Hz)","internal temp (C)","react chamber temp (C)","sample flow (l/min)","pres (mmHg)","SO2 bkg (ppb)","SO2 coefficient"
2016-12-23 00:00:00,2710E-3,5C000000,-0724,0836,12083,026.8,045.4,0.442,750.1,01.17,0.508
2016-12-23 00:01:00,2662E-3,5C000000,-0724,0837,12175,026.8,045.4,0.441,750.1,01.17,0.508
2016-12-23 00:02:00,2686E-3,5C000000,-0724,0837,12111,026.8,045.4,0.441,750.1,01.17,0.508
2016-12-23 00:03:00,2634E-3,5C000000,-0724,0836,12218,026.8,045.4,0.441,750.1,01.17,0.508
2016-12-23 00:04:00,2614E-3,5C000000,-0724,0836,12028,026.8,045.4,0.441,750.0,01.17,0.508
2016-12-23 00:05:00,2834E-3,5C000000,-0724,0835,12141,026.8,045.4,0.441,750.0,01.17,0.508
2016-12-23 00:06:00,2815E-3,5C000000,-0724,0835,12097,026.8,045.4,0.441,750.1,01.17,0.508
2016-12-23 00:07:00,2708E-3,5C000000,-0724,0835,12132,026.8,045.4,0.442,750.0,01.17,0.508
2016-12-23 00:08:00,2766E-3,5C000000,-0724,0836,12132,026.8,045.4,0.441,750.0,01.17,0.508
2016-12-23 00:09:00,2658E-3,5C000000,-0724,0835,12180,026.8,045.4,0.442,750.0,01.17,0.508
2016-12-23 00:10:00,2701E-3,5C000000,-0724,0835,12025,026.8,045.4,0.441,750.0,01.17,0.508
2016-12-23 00:11:00,2636E-3,5C000000,-0724,0836,12089,026.8,045.4,0.441,750.0,01.17,0.508
2016-12-23 00:12:00,2544E-3,5C000000,-0724,0835,12105,026.8,045.4,0.441,750.0,01.17,0.508
2016-12-23 00:13:00,2675E-3,5C000000,-0724,0835,12151,026.8,045.4,0.441,750.0,01.17,0.508
2016-12-23 00:14:00,2692E-3,5C000000,-0724,0836,12131,026.8,045.4,0.442,750.0,01.17,0.508
2016-12-23 00:15:00,2612E-3,5C000000,-0724,0836,12103,026.8,045.4,0.441,749.9,01.17,0.508
2016-12-23 00:16:00,2610E-3,5C000000,-0724,0836,12114,026.8,045.4,0.442,749.9,01.17,0.508
2016-12-23 00:17:00,2615E-3,5C000000,-0724,0835,12058,026.8,045.4,0.441,749.9,01.17,0.508
2016-12-23 00:18:00,2401E-3,5C000000,-0724,0836,12075,026.8,045.4,0.441,749.9,01.17,0.508
2016-12-23 00:19:00,2534E-3,5C000000,-0724,0835,12102,026.8,045.4,0.441,749.9,01.17,0.508
2016-12-23 00:20:00,2615E-3,5C000000,-0724,0837,12052,026.8,045.4,0.441,750.0,01.17,0.508
2016-12-23 00:21:00,2567E-3,5C000000,-0724,0836,12091,026.8,045.4,0.441,749.9,01.17,0.508
2016-12-23 00:22:00,2591E-3,5C000000,-0724,0836,12175,026.8,045.4,0.441,749.9,01.17,0.508
2016-12-23 00:23:00,2552E-3,5C000000,-0724,0835,12079,026.8,045.4,0.442,749.9,01.17,0.508
2016-12-23 00:24:00,2692E-3,5C000000,-0724,0836,12149,026.8,045.4,0.441,749.9,01.17,0.508
2016-12-23 00:25:00,2740E-3,5C000000,-0724,0836,12061,026.8,045.4,0.442,749.9,01.17,0.508
2016-12-23 00:26:00,2520E-3,5C000000,-0724,0835,12129,026.8,045.4,0.441,749.9,01.17,0.508
2016-12-23 00:27:00,2747E-3,5C000000,-0724,0836,12160,026.8,045.4,0.442,749.9,01.17,0.508
2016-12-23 00:28:00,2639E-3,5C000000,-0724,0836,12096,026.8,045.4,0.441,749.9,01.17,0.508
2016-12-23 00:29:00,2595E-3,5C000000,-0724,0836,12138,026.8,045.4,0.441,749.9,01.17,0.508
2016-12-23 00:30:00,2647E-3,5C000000,-0724,0836,12068,026.8,045.4,0.441,749.8,01.17,0.508
2016-12-23 00:31:00,2647E-3,5C000000,-0724,0836,12114,026.8,045.4,0.441,749.8,01.17,0.508
2016-12-23 00:32:00,2477E-3,5C000000,-0724,0836,12036,026.8,045.4,0.441,749.8,01.17,0.508
2016-12-23 00:33:00,2531E-3,5C000000,-0724,0835,11962,026.8,045.4,0.441,749.8,01.17,0.508
2016-12-23 00:34:00,2722E-3,5C000000,-0724,0836,11911,026.8,045.4,0.441,749.8,01.17,0.508
2016-12-23 00:35:00,2533E-3,5C000000,-0724,0835,12123,026.8,045.4,0.441,749.9,01.17,0.508
2016-12-23 00:36:00,2618E-3,5C000000,-0724,0836,11927,026.8,045.4,0.442,749.8,01.17,0.508
2016-12-23 00:37:00,2706E-3,5C000000,-0724,0835,12073,026.8,045.4,0.441,749.8,01.17,0.508
2016-12-23 00:38:00,2629E-3,5C000000,-0724,0835,12156,026.8,045.4,0.441,749.8,01.17,0.508
2016-12-23 00:39:00,2558E-3,5C000000,-0724,0834,11943,026.8,045.4,0.441,749.8,01.17,0.508
2016-12-23 00:40:00,2584E-3,5C000000,-0724,0834,12008,026.8,045.4,0.441,749.8,01.17,0.508
2016-12-23 00:41:00,2457E-3,5C000000,-0724,0836,12100,026.8,045.4,0.442,749.8,01.17,0.508
2016-12-23 00:42:00,2703E-3,5C000000,-0724,0835,12172,026.8,045.4,0.441,749.8,01.17,0.508
2016-12-23 00:43:00,2542E-3,5C000000,-0724,0835,11984,026.8,045.4,0.442,749.8,01.17,0.508
2016-12-23 00:44:00,2433E-3,5C000000,-0724,0835,12176,026.8,045.4,0.441,749.8,01.17,0.508
2016-12-23 00:45:00,2647E-3,5C000000,-0724,0835,11902,026.8,045.4,0.442,749.8,01.17,0.508
2016-12-23 00:46:00,2522E-3,5C000000,-0724,0835,12109,026.8,045.4,0.441,749.8,01.17,0.508
2016-12-23 00:47:00,2626E-3,5C000000,-0724,0835,12103,026.8,045.4,0.441,749.8,01.17,0.508
2016-12-23 00:48:00,2529E-3,5C000000,-0724,0835,12080,026.8,045.4,0.441,749.8,01.17,0.508
2016-12-23 00:49:00,2647E-3,5C000000,-0724,0836,11915,026.8,045.4,0.441,749.8,01.17,0.508
2016-12-23 00:50:00,2654E-3,5C000000,-0724,0835,11813,026.8,045.4,0.442,749.8,01.17,0.508
2016-12-23 00:51:00,2620E-3,5C000000,-0724,0836,12003,026.8,045.4,0.441,749.8,01.17,0.508
2016-12-23 00:52:00,2587E-3,5C000000,-0724,0835,11983,026.9,045.4,0.441,749.8,01.17,0.508
2016-12-23 00:53:00,2561E-3,5C000000,-0724,0836,12095,026.8,045.4,0.441,749.8,01.17,0.508
2016-12-23 00:54:00,2647E-3,5C000000,-0724,0836,12083,026.9,045.4,0.441,749.8,01.17,0.508
2016-12-23 00:55:00,2538E-3,5C000000,-0724,0837,12179,026.8,045.4,0.441,749.8,01.17,0.508
2016-12-23 00:56:00,2738E-3,5C000000,-0724,0836,12111,026.9,045.4,0.441,749.8,01.17,0.508
2016-12-23 00:57:00,2747E-3,5C000000,-0724,0836,12062,026.9,045.4,0.442,749.8,01.17,0.508
2016-12-23 00:58:00,2662E-3,5C000000,-0724,0836,12032,026.8,045.4,0.441,749.8,01.17,0.508
2016-12-23 00:59:00,2631E-3,5C000000,-0724,0836,12148,026.9,045.4,0.441,749.8,01.17,0.508
2016-12-23 01:00:00,2753E-3,5C000000,-0724,0837,12040,026.8,045.4,0.441,749.8,01.17,0.508
2016-12-23 01:01:00,2718E-3,5C000000,-0724,0836,12062,026.9,045.4,0.441,749.7,01.17,0.508
2016-12-23 01:02:00,2529E-3,5C000000,-0724,0836,11960,026.9,045.4,0.441,749.7,01.17,0.508
2016-12-23 01:03:00,2451E-3,5C000000,-0724,0836,12105,026.9,045.4,0.441,749.7,01.17,0.508
2016-12-23 01:04:00,2442E-3,5C000000,-0724,0835,12147,026.9,045.4,0.442,749.7,01.17,0.508
2016-12-23 01:05:00,2589E-3,5C000000,-0724,0835,12201,026.9,045.4,0.441,749.7,01.17,0.508
2016-12-23 01:06:00,2485E-3,5C000000,-0724,0835,12106,026.8,045.4,0.441,749.7,01.17,0.508
2016-12-23 01:07:00,2672E-3,5C000000,-0724,0834,12034,026.9,045.4,0.441,749.7,01.17,0.508
2016-12-23 01:08:00,2579E-3,5C000000,-0724,0836,12117,026.9,045.4,0.441,749.7,01.17,0.508
2016-12-23 01:09:00,2519E-3,5C000000,-0724,0835,12098,026.9,045.4,0.441,749.7,01.17,0.508
2016-12-23 01:10:00,2617E-3,5C000000,-0724,0835,12144,026.9,045.4,0.441,749.7,01.17,0.508
2016-12-23 01:11:00,2530E-3,5C000000,-0724,0836,12030,026.9,045.4,0.441,749.6,01.17,0.508
2016-12-23 01:12:00,2588E-3,5C000000,-0724,0836,11978,026.9,045.4,0.441,749.6,01.17,0.508
2016-12-23 01:13:00,2597E-3,5C000000,-0724,0835,12130,026.9,045.4,0.441,749.6,01.17,0.508
2016-12-23 01:14:00,2665E-3,5C000000,-0724,0834,12037,026.9,045.4,0.441,749.6,01.17,0.508
2016-12-23 01:15:00,2560E-3,5C000000,-0724,0835,11952,026.9,045.4,0.441,749.6,01.17,0.508
2016-12-23 01:16:00,2586E-3,5C000000,-0724,0836,12092,026.9,045.4,0.442,749.6,01.17,0.508
2016-12-23 01:17:00,2589E-3,5C000000,-0724,0835,11982,026.9,045.4,0.441,749.6,01.17,0.508
2016-12-23 01:18:00,2636E-3,5C000000,-0724,0835,12159,026.9,045.4,0.441,749.5,01.17,0.508
2016-12-23 01:19:00,2679E-3,5C000000,-0724,0835,12077,026.9,045.4,0.441,749.6,01.17,0.508
2016-12-23 01:20:00,2594E-3,5C000000,-0724,0835,12004,026.9,045.4,0.441,749.6,01.17,0.508
2016-12-23 01:21:00,2726E-3,5C000000,-0724,0835,11803,026.8,045.4,0.441,749.5,01.17,0.508
2016-12-23 01:22:00,2660E-3,5C000000,-0724,0834,12127,026.9,045.4,0.441,749.5,01.17,0.508
2016-12-23 01:23:00,2640E-3,5C000000,-0724,0834,11991,026.9,045.4,0.441,749.6,01.17,0.508
2016-12-23 01:24:00,2595E-3,5C000000,-0724,0834,12051,026.9,045.4,0.441,749.6,01.17,0.508
2016-12-23 01:25:00,2522E-3,5C000000,-0724,0835,12078,026.9,045.4,0.441,749.6,01.17,0.508
2016-12-23 01:26:00,2425E-3,5C000000,-0724,0835,12092,026.9,045.4,0.441,749.6,01.17,0.508
2016-12-23 01:27:00,2579E-3,5C000000,-0724,0835,12037,026.9,045.4,0.441,749.5,01.17,0.508
2016-12-23 01:28:00,2346E-3,5C000000,-0724,0835,11941,026.9,045.4,0.441,749.5,01.17,0.508
2016-12-23 01:29:00,2426E-3,5C000000,-0724,0836,12127,026.9,045.4,0.441,749.5,01.17,0.508
2016-12-23 01:30:00,2553E-3,5C000000,-0724,0835,12273,026.9,045.4,0.441,749.6,01.17,0.508
2016-12-23 01:31:00,2497E-3,5C000000,-0724,0835,12140,026.9,045.4,0.441,749.6,01.17,0.508
2016-12-23 01:32:00,2485E-3,5C000000,-0724,0834,12010,026.9,045.4,0.441,749.6,01.17,0.508
2016-12-23 01:33:00,2663E-3,5C000000,-0724,0835,12126,026.9,045.4,0.441,749.6,01.17,0.508
2016-12-23 01:34:00,2713E-3,5C000000,-0724,0836,12004,026.9,045.4,0.441,749.5,01.17,0.508
2016-12-23 01:35:00,2667E-3,5C000000,-0724,0835,11955,026.9,045.4,0.441,749.5,01.17,0.508
2016-12-23 01:36:00,2608E-3,5C000000,-0724,0836,12193,026.9,045.4,0.441,749.5,01.17,0.508
2016-12-23 01:37:00,2713E-3,5C000000,-0724,0836,11976,026.9,045.4,0.441,749.5,01.17,0.508
2016-12-23 01:38:00,2546E-3,5C000000,-0724,0835,12225,026.9,045.4,0.441,749.5,01.17,0.508
2016-12-23 01:39:00,2538E-3,5C000000,-0724,0835,12090,026.9,045.4,0.441,749.5,01.17,0.508
2016-12-23 01:40:00,2424E-3,5C000000,-0724,0835,11881,026.9,045.4,0.441,749.4,01.17,0.508
2016-12-23 01:41:00,2576E-3,5C000000,-0724,0835,12108,026.9,045.4,0.441,749.4,01.17,0.508
2016-12-23 01:42:00,2715E-3,5C000000,-0724,0835,12140,026.9,045.4,0.441,749.4,01.17,0.508
2016-12-23 01:43:00,2557E-3,5C000000,-0724,0835,11965,026.9,045.4,0.441,749.4,01.17,0.508
2016-12-23 01:44:00,2583E-3,5C000000,-0724,0836,11999,026.9,045.4,0.441,749.4,01.17,0.508
2016-12-23 01:45:00,2518E-3,5C000000,-0724,0835,12110,026.9,045.4,0.441,749.4,01.17,0.508
2016-12-23 01:46:00,2576E-3,5C000000,-0724,0836,12250,026.9,045.4,0.441,749.4,01.17,0.508
2016-12-23 01:47:00,2753E-3,5C000000,-0724,0835,11984,026.9,045.4,0.441,749.3,01.17,0.508
2016-12-23 01:48:00,2591E-3,5C000000,-0724,0835,12018,026.9,045.4,0.441,749.4,01.17,0.508
2016-12-23 01:49:00,2712E-3,5C000000,-0724,0835,12182,026.9,045.4,0.441,749.4,01.17,0.508
2016-12-23 01:50:00,2666E-3,5C000000,-0724,0836,12140,026.9,045.4,0.441,749.4,01.17,0.508
2016-12-23 01:51:00,2545E-3,5C000000,-0724,0835,12073,026.9,045.4,0.441,749.4,01.17,0.508
2016-12-23 01:52:00,2538E-3,5C000000,-0724,0836,11975,026.9,045.4,0.441,749.3,01.17,0.508
2016-12-23 01:53:00,2649E-3,5C000000,-0724,0835,12064,026.9,045.4,0.441,749.3,01.17,0.508
2016-12-23 01:54:00,2641E-3,5C000000,-0724,0835,11958,026.9,045.4,0.441,749.3,01.17,0.508
2016-12-23 01:55:00,2714E-3,5C000000,-0724,0835,12240,026.9,045.4,0.441,749.3,01.17,0.508
2016-12-23 01:56:00,2550E-3,5C000000,-0724,0835,12045,026.9,045.4,0.441,749.3,01.17,0.508
2016-12-23 01:57:00,2680E-3,5C000000,-0724,0836,12220,026.9,045.4,0.441,749.3,01.17,0.508
2016-12-23 01:58:00,2738E-3,5C000000,-0724,0835,12143,026.9,045.4,0.441,749.3,01.17,0.508
2016-12-23 01:59:00,2553E-3,5C000000,-0724,0836,12174,026.9,045.4,0.441,749.3,01.17,0.508
2016-12-23 02:00:00,2508E-3,5C000000,-0724,0835,12047,026.9,045.4,0.441,749.3,01.17,0.508
2016-12-23 02:01:00,2539E-3,5C000000,-0724,0835,12176,026.9,045.4,0.441,749.3,01.17,0.508
2016-12-23 02:02:00,2523E-3,5C000000,-0724,0835,12029,026.9,045.4,0.440,749.3,01.17,0.508
2016-12-23 02:03:00,2534E-3,5C000000,-0724,0835,12061,026.9,045.4,0.441,749.2,01.17,0.508
2016-12-23 02:04:00,2668E-3,5C000000,-0724,0835,12039,026.9,045.4,0.441,749.2,01.17,0.508
2016-12-23 02:05:00,2715E-3,5C000000,-0724,0835,12118,026.9,045.4,0.441,749.2,01.17,0.508
2016-12-23 02:06:00,2617E-3,5C000000,-0724,0835,12090,026.9,045.4,0.441,749.2,01.17,0.508
2016-12-23 02:07:00,2576E-3,5C000000,-0724,0835,12055,026.9,045.4,0.441,749.2,01.17,0.508
2016-12-23 02:08:00,2529E-3,5C000000,-0724,0835,12077,026.9,045.4,0.441,749.3,01.17,0.508
2016-12-23 02:09:00,2719E-3,5C000000,-0724,0835,12078,026.9,045.4,0.441,749.3,01.17,0.508
2016-12-23 02:10:00,2716E-3,5C000000,-0724,0835,12115,026.9,045.4,0.441,749.3,01.17,0.508
2016-12-23 02:11:00,2598E-3,5C000000,-0724,0835,12037,026.9,045.4,0.441,749.3,01.17,0.508
2016-12-23 02:12:00,2607E-3,5C000000,-0724,0836,12103,026.9,045.4,0.441,749.2,01.17,0.508
2016-12-23 02:13:00,2732E-3,5C000000,-0724,0836,12106,026.9,045.4,0.441,749.2,01.17,0.508
2016-12-23 02:14:00,2662E-3,5C000000,-0724,0835,12143,026.9,045.4,0.441,749.2,01.17,0.508
2016-12-23 02:15:00,2731E-3,5C000000,-0724,0835,12051,026.9,045.4,0.441,749.2,01.17,0.508
2016-12-23 02:16:00,2603E-3,5C000000,-0724,0835,12088,026.9,045.4,0.440,749.2,01.17,0.508
2016-12-23 02:17:00,2577E-3,5C000000,-0724,0835,12158,026.9,045.4,0.441,749.2,01.17,0.508
2016-12-23 02:18:00,2545E-3,5C000000,-0724,0836,12127,026.9,045.4,0.441,749.2,01.17,0.508
2016-12-23 02:19:00,2779E-3,5C000000,-0724,0835,12056,026.9,045.4,0.441,749.2,01.17,0.508
2016-12-23 02:20:00,2627E-3,5C000000,-0724,0836,11960,026.9,045.4,0.441,749.2,01.17,0.508
2016-12-23 02:21:00,2682E-3,5C000000,-0724,0836,11861,026.9,045.4,0.441,749.2,01.17,0.508
2016-12-23 02:22:00,2604E-3,5C000000,-0724,0835,12005,026.9,045.4,0.441,749.2,01.17,0.508
2016-12-23 02:23:00,2528E-3,5C000000,-0724,0835,12032,026.9,045.4,0.441,749.2,01.17,0.508
2016-12-23 02:24:00,2608E-3,5C000000,-0724,0835,11981,026.9,045.4,0.441,749.2,01.17,0.508
2016-12-23 02:25:00,2681E-3,5C000000,-0724,0835,12047,026.9,045.4,0.441,749.2,01.17,0.508
2016-12-23 02:26:00,2633E-3,5C000000,-0724,0835,12154,026.9,045.4,0.441,749.2,01.17,0.508
2016-12-23 02:27:00,2635E-3,5C000000,-0724,0835,12151,026.9,045.4,0.441,749.2,01.17,0.508
2016-12-23 02:28:00,2571E-3,5C000000,-0724,0836,12262,026.9,045.4,0.441,749.1,01.17,0.508
2016-12-23 02:29:00,2685E-3,5C000000,-0724,0834,11985,026.9,045.4,0.441,749.1,01.17,0.508
2016-12-23 02:30:00,2722E-3,5C000000,-0724,0834,12228,026.9,045.4,0.441,749.1,01.17,0.508
2016-12-23 02:31:00,2569E-3,5C000000,-0724,0834,12164,026.9,045.4,0.441,749.1,01.17,0.508
2016-12-23 02:32:00,2692E-3,5C000000,-0724,0835,12029,026.9,045.4,0.441,749.1,01.17,0.508
2016-12-23 02:33:00,2582E-3,5C000000,-0724,0834,12057,026.9,045.4,0.441,749.1,01.17,0.508
2016-12-23 02:34:00,2609E-3,5C000000,-0724,0834,12053,026.9,045.4,0.441,749.1,01.17,0.508
2016-12-23 02:35:00,2759E-3,5C000000,-0724,0834,12128,026.9,045.4,0.441,749.1,01.17,0.508
2016-12-23 02:36:00,2676E-3,5C000000,-0724,0834,12076,026.9,045.4,0.441,749.1,01.17,0.508
2016-12-23 02:37:00,2655E-3,5C000000,-0724,0835,11987,026.9,045.4,0.441,749.1,01.17,0.508
2016-12-23 02:38:00,2510E-3,5C000000,-0724,0835,12135,026.9,045.4,0.441,749.1,01.17,0.508
2016-12-23 02:39:00,2540E-3,5C000000,-0724,0835,11914,026.9,045.4,0.441,749.1,01.17,0.508
2016-12-23 02:40:00,2664E-3,5C000000,-0724,0835,12152,026.9,045.4,0.441,749.1,01.17,0.508
2016-12-23 02:41:00,2523E-3,5C000000,-0724,0836,12121,026.9,045.4,0.441,749.1,01.17,0.508
2016-12-23 02:42:00,2612E-3,5C000000,-0724,0835,12117,026.9,045.4,0.441,749.1,01.17,0.508
2016-12-23 02:43:00,2554E-3,5C000000,-0724,0835,11917,026.9,045.4,0.440,749.1,01.17,0.508
2016-12-23 02:44:00,2617E-3,5C000000,-0724,0835,11977,026.9,045.4,0.441,749.1,01.17,0.508
2016-12-23 02:45:00,2599E-3,5C000000,-0724,0836,12213,026.9,045.4,0.441,749.1,01.17,0.508
2016-12-23 02:46:00,2515E-3,5C000000,-0724,0835,12023,026.9,045.4,0.441,749.2,01.17,0.508
2016-12-23 02:47:00,2793E-3,5C000000,-0724,0835,12025,026.9,045.4,0.441,749.1,01.17,0.508
2016-12-23 02:48:00,2686E-3,5C000000,-0724,0835,12066,026.9,045.4,0.441,749.1,01.17,0.508
2016-12-23 02:49:00,2590E-3,5C000000,-0724,0835,11882,026.9,045.4,0.441,749.1,01.17,0.508
2016-12-23 02:50:00,2619E-3,5C000000,-0724,0835,12076,026.9,045.4,0.441,749.1,01.17,0.508
2016-12-23 02:51:00,2693E-3,5C000000,-0724,0834,12211,026.9,045.4,0.441,749.1,01.17,0.508
2016-12-23 02:52:00,2637E-3,5C000000,-0724,0835,11931,026.9,045.4,0.441,749.1,01.17,0.508
2016-12-23 02:53:00,2678E-3,5C000000,-0724,0835,12050,026.9,045.4,0.441,749.1,01.17,0.508
2016-12-23 02:54:00,2749E-3,5C000000,-0724,0835,12123,026.9,045.4,0.441,749.1,01.17,0.508
2016-12-23 02:55:00,2572E-3,5C000000,-0724,0835,12127,026.9,045.4,0.441,749.0,01.17,0.508
2016-12-23 02:56:00,2577E-3,5C000000,-0724,0835,12133,026.9,045.4,0.441,749.0,01.17,0.508
2016-12-23 02:57:00,2712E-3,5C000000,-0724,0835,12052,026.9,045.4,0.440,749.0,01.17,0.508
2016-12-23 02:58:00,2497E-3,5C000000,-0724,0835,11949,026.9,045.4,0.441,749.0,01.17,0.508
2016-12-23 02:59:00,2689E-3,5C000000,-0724,0836,12082,026.9,045.4,0.441,749.0,01.17,0.508
2016-12-23 03:00:00,2761E-3,5C000000,-0724,0835,12223,026.9,045.4,0.441,749.0,01.17,0.508
2016-12-23 03:01:00,2567E-3,5C000000,-0724,0834,12085,026.9,045.4,0.441,748.9,01.17,0.508
2016-12-23 03:02:00,2540E-3,5C000000,-0724,0835,12086,026.9,045.4,0.440,748.9,01.17,0.508
2016-12-23 03:03:00,2707E-3,5C000000,-0724,0835,12026,026.9,045.4,0.441,748.9,01.17,0.508
2016-12-23 03:04:00,2808E-3,5C000000,-0724,0835,11963,026.9,045.4,0.441,748.9,01.17,0.508
2016-12-23 03:05:00,2602E-3,5C000000,-0724,0835,12053,026.9,045.4,0.440,748.9,01.17,0.508
2016-12-23 03:06:00,2666E-3,5C000000,-0724,0836,12330,026.9,045.4,0.441,748.9,01.17,0.508
2016-12-23 03:07:00,2577E-3,5C000000,-0724,0835,12048,026.9,045.4,0.440,748.9,01.17,0.508
2016-12-23 03:08:00,2638E-3,5C000000,-0724,0835,12155,026.9,045.4,0.441,748.9,01.17,0.508
2016-12-23 03:09:00,2693E-3,5C000000,-0724,0835,12048,026.9,045.4,0.441,748.9,01.17,0.508
2016-12-23 03:10:00,2837E-3,5C000000,-0724,0835,12015,026.9,045.4,0.441,748.9,01.17,0.508
2016-12-23 03:11:00,2799E-3,5C000000,-0724,0835,12143,026.9,045.4,0.441,748.9,01.17,0.508
2016-12-23 03:12:00,2475E-3,5C000000,-0724,0836,12112,026.9,045.4,0.440,748.9,01.17,0.508
2016-12-23 03:13:00,2715E-3,5C000000,-0724,0835,12110,026.9,045.4,0.441,748.9,01.17,0.508
2016-12-23 03:14:00,2751E-3,5C000000,-0724,0836,11990,026.9,045.4,0.441,748.9,01.17,0.508
2016-12-23 03:15:00,2734E-3,5C000000,-0724,0835,12063,026.9,045.4,0.441,748.9,01.17,0.508
2016-12-23 03:16:00,2845E-3,5C000000,-0724,0835,12040,026.9,045.4,0.441,748.9,01.17,0.508
2016-12-23 03:17:00,2804E-3,5C000000,-0724,0835,12035,026.9,045.4,0.440,748.9,01.17,0.508
2016-12-23 03:18:00,2617E-3,5C000000,-0724,0835,12216,026.9,045.4,0.441,748.9,01.17,0.508
2016-12-23 03:19:00,2808E-3,5C000000,-0724,0835,12034,026.9,045.4,0.441,748.9,01.17,0.508
2016-12-23 03:20:00,2633E-3,5C000000,-0724,0834,11943,026.9,045.4,0.441,748.9,01.17,0.508
2016-12-23 03:21:00,2754E-3,5C000000,-0724,0835,12176,026.9,045.4,0.441,748.9,01.17,0.508
2016-12-23 03:22:00,2586E-3,5C000000,-0724,0834,12080,026.9,045.4,0.440,748.9,01.17,0.508
2016-12-23 03:23:00,2774E-3,5C000000,-0724,0835,12094,026.9,045.4,0.441,748.9,01.17,0.508
2016-12-23 03:24:00,2710E-3,5C000000,-0724,0835,12241,026.9,045.4,0.440,748.9,01.17,0.508
2016-12-23 03:25:00,2674E-3,5C000000,-0724,0834,12128,026.9,045.4,0.441,748.9,01.17,0.508
2016-12-23 03:26:00,2677E-3,5C000000,-0724,0835,12084,026.9,045.4,0.441,748.9,01.17,0.508
2016-12-23 03:27:00,2776E-3,5C000000,-0724,0834,12035,026.9,045.4,0.440,748.9,01.17,0.508
2016-12-23 03:28:00,2695E-3,5C000000,-0724,0835,12131,026.9,045.4,0.441,748.8,01.17,0.508
2016-12-23 03:29:00,2592E-3,5C000000,-0724,0835,12045,026.9,045.4,0.440,748.8,01.17,0.508
2016-12-23 03:30:00,2828E-3,5C000000,-0724,0835,12089,026.9,045.4,0.441,748.8,01.17,0.508
2016-12-23 03:31:00,2668E-3,5C000000,-0724,0835,12229,026.9,045.4,0.441,748.8,01.17,0.508
2016-12-23 03:32:00,2700E-3,5C000000,-0724,0835,12025,026.9,045.4,0.441,748.8,01.17,0.508
2016-12-23 03:33:00,2581E-3,5C000000,-0724,0835,11995,026.9,045.4,0.441,748.8,01.17,0.508
2016-12-23 03:34:00,2643E-3,5C000000,-0724,0836,12093,026.9,045.4,0.441,748.8,01.17,0.508
2016-12-23 03:35:00,2758E-3,5C000000,-0724,0835,12062,026.9,045.4,0.441,748.8,01.17,0.508
2016-12-23 03:36:00,2843E-3,5C000000,-0724,0835,12084,026.9,045.4,0.440,748.8,01.17,0.508
2016-12-23 03:37:00,2713E-3,5C000000,-0724,0834,12191,026.9,045.4,0.441,748.7,01.17,0.508
2016-12-23 03:38:00,2815E-3,5C000000,-0724,0835,12098,026.9,045.4,0.441,748.7,01.17,0.508
2016-12-23 03:39:00,2573E-3,5C000000,-0724,0835,12165,026.9,045.4,0.440,748.7,01.17,0.508
2016-12-23 03:40:00,2610E-3,5C000000,-0724,0835,12111,026.9,045.4,0.441,748.7,01.17,0.508
2016-12-23 03:41:00,2992E-3,5C000000,-0724,0835,11987,026.9,045.4,0.440,748.7,01.17,0.508
2016-12-23 03:42:00,2677E-3,5C000000,-0724,0836,12028,026.9,045.4,0.441,748.7,01.17,0.508
2016-12-23 03:43:00,2734E-3,5C000000,-0724,0835,12205,026.9,045.4,0.441,748.7,01.17,0.508
2016-12-23 03:44:00,2857E-3,5C000000,-0724,0835,12025,026.9,045.4,0.440,748.7,01.17,0.508
2016-12-23 03:45:00,2532E-3,5C000000,-0724,0835,12184,026.9,045.4,0.441,748.7,01.17,0.508
2016-12-23 03:46:00,2811E-3,5C000000,-0724,0835,11968,026.9,045.4,0.441,748.7,01.17,0.508
2016-12-23 03:47:00,2803E-3,5C000000,-0724,0835,12092,026.9,045.4,0.441,748.7,01.17,0.508
2016-12-23 03:48:00,2718E-3,5C000000,-0724,0835,12135,026.9,045.4,0.441,748.7,01.17,0.508
2016-12-23 03:49:00,2687E-3,5C000000,-0724,0835,12053,026.9,045.4,0.440,748.7,01.17,0.508
2016-12-23 03:50:00,2832E-3,5C000000,-0724,0836,12174,026.9,045.4,0.441,748.8,01.17,0.508
2016-12-23 03:51:00,2657E-3,5C000000,-0724,0835,12104,026.9,045.4,0.441,748.8,01.17,0.508
2016-12-23 03:52:00,2844E-3,5C000000,-0724,0835,12034,026.9,045.4,0.441,748.8,01.17,0.508
2016-12-23 03:53:00,2775E-3,5C000000,-0724,0835,12066,026.9,045.4,0.441,748.8,01.17,0.508
2016-12-23 03:54:00,2766E-3,5C000000,-0724,0835,12063,026.9,045.4,0.441,748.8,01.17,0.508
2016-12-23 03:55:00,2640E-3,5C000000,-0724,0835,11996,026.9,045.4,0.441,748.7,01.17,0.508
2016-12-23 03:56:00,2700E-3,5C000000,-0724,0835,12096,026.9,045.4,0.441,748.7,01.17,0.508
2016-12-23 03:57:00,2762E-3,5C000000,-0724,0835,11997,026.9,045.4,0.441,748.7,01.17,0.508
2016-12-23 03:58:00,2627E-3,5C000000,-0724,0835,11987,026.9,045.4,0.441,748.7,01.17,0.508
2016-12-23 03:59:00,2613E-3,5C000000,-0724,0834,12061,026.9,045.4,0.441,748.7,01.17,0.508
2016-12-23 04:00:00,2840E-3,5C000000,-0724,0836,12001,026.9,045.4,0.441,748.7,01.17,0.508
2016-12-23 04:01:00,2787E-3,5C000000,-0724,0835,12222,026.9,045.4,0.440,748.7,01.17,0.508
2016-12-23 04:02:00,2832E-3,5C000000,-0724,0835,12044,026.9,045.4,0.441,748.7,01.17,0.508
2016-12-23 04:03:00,2792E-3,5C000000,-0724,0835,12100,026.9,045.4,0.441,748.7,01.17,0.508
2016-12-23 04:04:00,2717E-3,5C000000,-0724,0835,12159,026.9,045.4,0.440,748.7,01.17,0.508
2016-12-23 04:05:00,2643E-3,5C000000,-0724,0835,12182,026.9,045.4,0.441,748.7,01.17,0.508
2016-12-23 04:06:00,2633E-3,5C000000,-0724,0837,12204,026.9,045.4,0.441,748.7,01.17,0.508
2016-12-23 04:07:00,2710E-3,5C000000,-0724,0835,12018,026.9,045.4,0.441,748.7,01.17,0.508
2016-12-23 04:08:00,2644E-3,5C000000,-0724,0834,11957,026.9,045.4,0.441,748.7,01.17,0.508
2016-12-23 04:09:00,2774E-3,5C000000,-0724,0835,12002,026.9,045.4,0.440,748.7,01.17,0.508
2016-12-23 04:10:00,2724E-3,5C000000,-0724,0835,12098,026.9,045.4,0.441,748.6,01.17,0.508
2016-12-23 04:11:00,2872E-3,5C000000,-0724,0835,12138,026.9,045.4,0.440,748.6,01.17,0.508
2016-12-23 04:12:00,2679E-3,5C000000,-0724,0835,12051,026.9,045.4,0.441,748.6,01.17,0.508
2016-12-23 04:13:00,2807E-3,5C000000,-0724,0835,12107,026.9,045.4,0.441,748.6,01.17,0.508
2016-12-23 04:14:00,2833E-3,5C000000,-0724,0835,12049,026.9,045.4,0.440,748.7,01.17,0.508
2016-12-23 04:15:00,2714E-3,5C000000,-0724,0835,12053,026.9,045.4,0.441,748.6,01.17,0.508
2016-12-23 04:16:00,2828E-3,5C000000,-0724,0835,12178,026.9,045.4,0.441,748.6,01.17,0.508
2016-12-23 04:17:00,2549E-3,5C000000,-0724,0835,12034,026.9,045.4,0.441,748.7,01.17,0.508
2016-12-23 04:18:00,2790E-3,5C000000,-0724,0835,12072,026.9,045.4,0.441,748.7,01.17,0.508
2016-12-23 04:19:00,2762E-3,5C000000,-0724,0834,12226,026.9,045.4,0.440,748.7,01.17,0.508
2016-12-23 04:20:00,2699E-3,5C000000,-0724,0836,12137,026.9,045.4,0.441,748.7,01.17,0.508